Location: ???????
(55.2903°N, 39.1554°E)
Time: 10:18:11
(UTC+00:00)

Meteor 1-27 Rocket - Pass Details

Date: 14 April 2024
Orbit: 829 x 910 km, 81.3° (Epoch: 19 May)

Event Time Altitude Azimuth Distance (km) Brightness Sun altitude
Exits shadow 01:14:48 - 211° (SSW) 2,705 5.8 -9.4°
Reaches altitude 10° 01:15:14 10° 212° (SSW) 2,542 5.6 -9.3°
Maximum altitude 01:20:55 56° 290° (WNW) 1,035 4.0 -8.7°
Drops below altitude 10° 01:26:30 10° 9° (N) 2,504 6.7 -8.0°
Sets 01:28:59 0° 14° (NNE) 3,432 7.6 -7.7°
